User: anonymous   Login
Location: Hale Hill Observatory
(39.3806°N, 86.8431°W)
Time: 23:37:54
(UTC-04:00)
Language:

Cosmos 990 Rocket - Orbit

View from above orbital plane
View from above orbital plane
View from above satellite
View from above satellite

Ground track
Ground track

The orbit data is extracted from the following two-line orbital elements,

1 10677U 78019B   17177.48367205 +.00000038 +00000-0 +20333-4 0  9990
2 10677 074.0389 284.2396 0015534 352.3473 007.7442 14.40023309063574
Epoch (UTC): 26 June 2017 11:36:29
Eccentricity: 0.0015534
inclination: 74.0389°
perigee height: 747 km
apogee height: 769 km
right ascension of ascending node: 284.2396°
argument of perigee: 352.3473°
revolutions per day: 14.40023309
mean anomaly at epoch: 7.7442°
orbit number at epoch: 6357

The dashed part of the orbit path shows where the satellite is in the earth's shadow,  

DLR